Regional Weather Roundup
Issued by NWS

Home | Current Version | Previous Version | Text Only | Print | Product List | Glossary Off
Versions: 1 2 3 4 5 6 7 8 9 10 11 12 13 14 15 16 17 18 19 20 21 22 23 24 25 26 27 28 29 30 31 32 33 34 35 36 37 38 39 40 41 42 43 44 45 46 47 48 49 50

000
ASUS43 KMKX 281421
RWRWI

WISCONSIN REGIONAL WEATHER ROUNDUP
NATIONAL WEATHER SERVICE MILWAUKEE/SULLIVAN WI
900 AM CDT FRI APR 28 2017

NOTE: "FAIR" INDICATES FEW OR NO CLOUDS BELOW 12,000 FEET WITH NO
SIGNIFICANT WEATHER AND/OR OBSTRUCTIONS TO VISIBILITY.

WIZ001-002-006>008-014>016-023>028-281500-
NORTHWEST WISCONSIN

CITY           SKY/WX    TMP DP  RH WIND       PRES   REMARKS
SUPERIOR ARPT  CLOUDY    34  22  62 NW16G22   29.85R WCI  24
ASHLAND        CLOUDY    33  25  72 W13       29.83R WCI  24
HAYWARD        CLOUDY    32  21  64 NW8G17    29.84R WCI  25
SIREN          CLOUDY    34  24  66 NW8       29.88R WCI  27
CUMBERLAND     CLOUDY    34  21  60 NW10      29.86S WCI  26
RICE LAKE      CLOUDY    34  22  61 NW9       29.88S WCI  26
CHETEK         CLOUDY    35  26  71 NW7       29.87R WCI  29
LADYSMITH      CLOUDY    34  26  71 W13       29.86S WCI  25
EAU CLAIRE     MOSUNNY   39  23  52 NW14      29.86S WCI  31
MENOMONIE      SUNNY     39  24  54 NW14      29.87F WCI  30
NEW RICHMOND   SUNNY     37  24  58 NW10G18   29.88S WCI  30
OSCEOLA        MOSUNNY   36  25  63 NW9       29.93R WCI  29
$$

WIZ003>005-009-010-017-018-281500-
NORTH CENTRAL WISCONSIN

CITY           SKY/WX    TMP DP  RH WIND       PRES   REMARKS
MANITOWISH WTR CLOUDY    29  23  78 W14G22    29.77R WCI  18
ARBOR VITAE    CLOUDY    32  24  74 NW16      29.79R WCI  21
WOODRUFF       CLOUDY    32  24  74 NW16      29.79R WCI  21
RHINELANDER    CLOUDY    32  24  72 W16       29.81R WCI  21
EAGLE RIVER    CLOUDY    31  20  63 W14G20    29.79R WCI  21
LAND O LAKES   CLOUDY    31  22  70 W12G21    29.78S WCI  22
PHILLIPS       CLOUDY    30  26  86 W5        29.81R WCI  25
TOMAHAWK       CLOUDY    32  23  70 W12G17    29.83R WCI  23
MEDFORD        CLOUDY    32  22  68 W13G23    29.83R WCI  22
MERRILL        CLOUDY    33  24  71 W7        29.84R WCI  27
$$

WIZ029-030-035-036-043>047-281500-
CENTRAL WISCONSIN

CITY           SKY/WX    TMP DP  RH WIND       PRES   REMARKS
WAUSAU         PTSUNNY   35  26  69 W12       29.84R WCI  27
MOSINEE        PTSUNNY   36  25  64 W16       29.86R WCI  26
MARSHFIELD     MOSUNNY   37  25  61 NW15G26   29.85R WCI  28
STEVENS POINT  PTSUNNY   35  24  63 W10       29.87R WCI  28
WAUPACA        PTSUNNY   40  28  61 W12       29.89S WCI  33
WAUTOMA        MOSUNNY   39  27  60 W10       29.92R WCI  32
WISC RAPIDS    CLOUDY    38  27  64 W13       29.90R WCI  30
CAMP DOUGLAS   MOSUNNY   41  30  65 NW10G18   29.90R
$$

WIZ011>013-019>022-031-037>040-048>050-281500-
NORTHEAST WISCONSIN

CITY           SKY/WX    TMP DP  RH WIND       PRES   REMARKS
ANTIGO         CLOUDY    32  25  76 W15G22    29.83R WCI  22
SHAWANO        CLOUDY    38  27  64 W12       29.87R WCI  30
OCONTO         CLOUDY    36  25  65 W13G20    29.88R WCI  27
STURGEON BAY   CLOUDY    36  27  69 W12       29.88R WCI  28
GREEN BAY      CLOUDY    38  29  70 W13       29.89R WCI  30
MANITOWOC      CLOUDY    38  29  70 W12       29.92R WCI  30
APPLETON       PTSUNNY   37  25  60 W10       29.88R WCI  30
CLINTONVILLE   CLOUDY    37  27  65 W8        29.88R WCI  31
OSHKOSH        CLOUDY    38  29  70 W5        29.90R WCI  34
$$

WIZ032>034-041-042-053>061-281500-
SOUTHWEST WISCONSIN

CITY           SKY/WX    TMP DP  RH WIND       PRES   REMARKS
LA CROSSE      SUNNY     42  29  59 SW3       29.91R
SPARTA         SUNNY     41  30  66 NW7       29.90S
VIROQUA        SUNNY     37  29  71 CALM      29.90R
BOSCOBEL       SUNNY     42  28  57 CALM      29.94R
PRAIRIE DU CHI SUNNY     40  29  65 CALM      29.95R
PLATTEVILLE    CLOUDY    39  32  75 NE7       29.93S WCI  34
$$

WIZ056-057-062-063-064-067-068-281500-
SOUTH CENTRAL WISCONSIN

CITY           SKY/WX    TMP DP  RH WIND       PRES   REMARKS
REEDSBURG      NOT AVBL
BARABOO/DELLS  SUNNY     38  27  62 W5        29.92R WCI  35
LONE ROCK      SUNNY     40  28  62 CALM      29.94R
MINERAL POINT  SUNNY     39  32  75 N9        29.92S WCI  33
MADISON        MOSUNNY   39  29  67 N6        29.93R WCI  35
MIDDLETON      SUNNY     40  31  67 CALM      29.93R
WATERTOWN      PTSUNNY   40  33  77 W8        29.94R WCI  34
MONROE         SUNNY     37  32  81 CALM      29.93S
JANESVILLE     MOSUNNY   41  32  70 NW7       29.93R
$$

WIZ051-052-058>065-066-070>072-281500-
SOUTHEAST WISCONSIN

CITY           SKY/WX    TMP DP  RH WIND       PRES   REMARKS
MILWAUKEE      MOSUNNY   44  34  67 SW9       29.95R
WAUKESHA       MOSUNNY   39  30  70 W8        29.95R WCI  34
MILWAUKEE/TIMM MOSUNNY   41  30  65 SW8       29.95R
RACINE         SUNNY     44  32  62 VRB7      29.96R
KENOSHA        SUNNY     45  34  65 SW7       29.95R
FOND DU LAC    CLOUDY    38  28  67 W6        29.92R WCI  33
SHEBOYGAN      CLOUDY    39  34  82 SW8       29.92R WCI  33
WEST BEND      MOSUNNY   39  32  75 W8        29.93R WCI  34
JUNEAU         CLOUDY    37  30  75 SW6       29.95R WCI  33
$$

LSZ147-162-281500-
LAKE SUPERIOR

STATION/POSITION TIME  TEMP    WIND        PRES    WAVE
                       AIR SEA DIR/SP/G            HT/PER
                 (UTC) (F)     (DEG/KT/KT) (MB)    (FT/S)
DEVILS ISLAND    1400   32     270/ 21/ 24 1009.9R
PORT WING        1330   33     290/ 15/ 22 1010.5R
SAXON HARBOR     1330   32     240/  4/ 12 1009.8R
$$

LMZ867-665-643>646-281500-
LAKE MICHIGAN

STATION/POSITION TIME  TEMP    WIND        PRES    WAVE
                       AIR SEA DIR/SP/G            HT/PER
                 (UTC) (F)     (DEG/KT/KT) (MB)    (FT/S)
CHAMBERS ISLAND  1340   35     210/  7/ 15 1010.8R
N MID LAKE BUOY  1350   35 37  240/ 16/ 19 1012.3R   3/ 4
NORTHPORT PIER   1330   35     280/  7/ 14 1011.5R
SISTER BAY       1336   36     300/ 17/ 20   N/A
KEWAUNEE LAKESHO 1354   37     260/  8/ 12 1012.1R
SHEBOYGAN LAKESH 1400   39     240/  6/  9 1013.7R
PORT WASHINGTON  1340   42     270/  3/ 10 1014.6R
MILWAUKEE LAKESH 1400   42     250/  5/  7   N/A
S MID LAKE BUOY  1350   42 41  250/  6/  6 1015.1R   1/ 4
KENOSHA   LAKESH 1400   44     140/  6/  8 1014.6
$$

TC  - TEMPERATURE IN CELSIUS
VSB - VISIBILITY IN STATUTE MILES
WCI - WIND CHILL INDEX
HX  - HEAT INDEX




USA.gov is the U.S. government's official web portal to all federal, state and local government web resources and services.